Location: Góry Miechowskie
(50.3599°N, 20.1803°E)
Time: 01:36:25
(UTC+00:00)

Vanguard 2 - Pass Details

Date: 15 September 2024
Orbit: 552 x 2910 km, 32.9° (Epoch: 09 October)

Event Time Altitude Azimuth Distance (km) Brightness Sun altitude
Rises 02:42:36 0° 217° (SW) 3,192 - -15.1°
Exits shadow 02:45:10 - 199° (SSW) 2,625 9.9 -14.7°
Reaches altitude 10° 02:45:42 10° 194° (SSW) 2,546 9.8 -14.6°
Maximum altitude 02:49:16 16° 158° (SSE) 2,484 10.1 -14.1°
Drops below altitude 10° 02:53:45 10° 124° (SE) 3,369 11.3 -13.4°
Sets 02:58:55 0° 106° (ESE) 4,885 12.6 -12.7°
